Terug naar catalogus

SL-12 R/B(2)

ActiefMEO
NORAD 36403·ROCKET BODY·🇷🇺 Russia

Gelanceerd Mar 1, 2010 vanaf Baikonur Cosmodrome

Loading…

Volgende Passages (komende 24 uur)

TLE

VerouderendSource: Space-Track

Epoch: Aug 30, 2026, 10:44 UTC

1 36403U 10007D   26242.44784175 -.00000022  00000-0  00000+0 0  9994
2 36403  65.3695 311.5510 0020357 188.7655 171.9358  2.13314883128508

Volg SL-12 R/B(2) in realtime met AllMySat

Download on the App Store